Location: Wingville
(42.9917°N, 90.4915°W)
Time: 01:15:12
(UTC+00:00)

YUBILEINY - Visible Passes

Search period start: 30 June 2022 00:00
Search period end: 10 July 2022 00:00
Orbit: 1479 x 1507 km, 82.5° (Epoch: 29 June)

Date Brightness Start Highest point End Pass type
(mag) Time Alt. Az. Time Alt. Az. Time Alt. Az.
30 Jun ? 08:40:00 10° NNE 08:46:15 21° ENE 08:52:27 10° ESE visible
01 Jul ? 07:53:23 10° NE 07:55:21 11° NE 07:57:18 10° ENE visible
01 Jul ? 09:45:59 10° N 09:54:37 54° ENE 10:03:06 10° SSE visible
02 Jul ? 08:56:54 10° N 09:04:30 31° ENE 09:11:59 10° SE visible
03 Jul ? 08:08:29 10° NNE 08:13:56 17° ENE 08:19:19 10° E visible
04 Jul ? 09:14:06 10° N 09:22:31 46° ENE 09:30:47 10° SE visible
05 Jul ? 08:25:10 10° N 08:32:16 26° ENE 08:39:17 10° ESE visible
06 Jul ? 07:37:11 10° NNE 07:41:34 14° NE 07:45:55 10° E visible
06 Jul ? 09:31:32 10° N 09:40:20 68° E 09:48:59 10° SSE visible
07 Jul ? 08:42:16 10° N 08:50:22 39° ENE 08:58:21 10° SE visible
08 Jul ? 07:53:31 10° NNE 08:00:00 22° ENE 08:06:26 10° ESE visible
08 Jul ? 09:49:08 10° N 09:57:58 84° W 10:06:41 10° S visible
09 Jul ? 07:06:20 10° NNE 07:09:09 12° NE 07:11:58 10° ENE visible
09 Jul ? 08:59:37 10° N 09:08:16 57° ENE 09:16:48 10° SSE visible
